EHI
0 0 0 0 0 0 0 0 0 0 0 2 3 2 4 10 14 17 22 30 34 34 32 30 28 26 25 22 19 19 18 14 10 8 4 1 0 0 0 0 0 0 0 0
0 0 0 0 0 0 0 0 0 0 0 2 2 1 3 7 11 14 19 27 32 31 28 26 25 25 23 19 16 16 14 12 9 6 2 0 0 0 0 0 0 0 0 0
0 0 0 0 0 0 0 0 0 0 0 1 1 0 1 3 6 9 13 20 27 29 27 25 23 22 19 16 13 11 11 9 6 3 1 0 0 0 0 0 0 0 0 0
0 0 0 0 0 0 0 0 0 0 0 0 0 0 0 1 2 3 7 13 22 28 28 25 23 21 17 14 10 8 8 6 4 2 1 0 0 0 0 0 0 0 0 0
0 0 0 0 0 0 0 0 0 0 0 0 0 0 0 0 0 1 3 9 18 25 26 24 22 19 16 13 9 7 5 4 3 2 1 0 0 0 0 0 0 0 0 0
0 0 0 0 0 0 0 0 0 0 0 0 0 0 0 0 0 1 4 9 16 22 23 20 17 16 13 10 8 6 4 2 2 1 0 0 0 0 0 0 0 0 0 0
0 0 0 0 0 0 0 0 0 0 0 0 0 0 0 0 1 2 5 9 14 18 19 17 14 12 11 10 9 7 5 3 3 1 1 0 0 0 0 0 0 0 0 0
0 0 0 0 0 0 0 0 0 0 0 0 0 0 0 0 1 2 4 7 10 12 14 15 13 12 12 12 13 11 7 5 4 3 2 1 0 0 0 0 0 0 0 0
0 0 0 0 0 0 0 0 0 0 0 0 0 0 0 0 0 2 3 3 5 7 10 13 13 14 15 14 15 13 10 7 5 4 3 2 1 0 0 0 0 0 0 0
0 0 0 0 0 0 0 0 0 0 0 0 0 0 0 0 1 2 2 2 3 6 9 11 13 16 17 16 16 15 12 9 6 5 3 2 1 0 0 0 0 0 0 0
0 0 0 0 0 0 0 0 0 0 0 0 0 0 0 0 2 3 3 3 4 7 10 10 12 16 18 18 18 18 15 11 8 6 4 2 1 0 0 0 0 0 0 0
0 0 0 0 0 0 0 0 0 0 0 0 0 0 1 1 2 4 4 3 4 7 9 9 11 14 17 18 18 18 16 13 8 5 4 2 1 0 0 0 0 0 0 0
0 0 0 0 0 0 0 0 0 0 0 0 0 1 2 3 4 5 5 4 5 8 10 9 10 13 14 16 16 16 17 15 10 6 5 3 1 1 1 1 1 0 0 0
0 0 0 0 0 0 0 0 0 0 0 0 0 2 3 4 6 7 6 6 8 11 12 10 10 11 12 13 13 14 16 15 12 8 7 5 2 2 2 2 2 1 0 0
0 0 0 0 0 0 0 0 0 0 0 0 2 3 3 4 7 8 9 10 12 14 14 12 10 10 11 12 12 13 13 13 11 9 8 6 5 4 4 3 2 1 1 1
0 0 0 0 0 0 0 0 0 0 0 1 3 4 3 4 7 9 11 13 16 17 16 13 10 8 9 11 12 12 11 10 9 8 7 7 7 6 5 4 3 2 2 3
0 0 0 0 0 0 0 0 0 0 1 2 4 7 8 10 12 12 13 15 17 18 16 11 7 6 7 7 8 8 7 6 6 5 5 6 5 5 3 2 2 2 2 2
0 0 0 0 0 0 0 0 0 2 4 4 7 13 18 22 21 17 15 13 12 12 11 7 4 4 4 3 3 3 2 2 3 3 3 3 2 1 0 0 1 1 0 1
0 0 0 0 0 0 0 0 1 5 7 8 13 22 29 32 29 20 13 9 7 6 5 3 1 1 1 1 1 0 0 0 1 1 1 1 0 0 0 0 0 0 0 0
0 0 0 0 0 0 0 0 1 5 7 9 17 26 29 29 24 15 8 5 4 4 2 1 0 0 0 0 0 0 0 0 0 0 0 0 0 0 0 0 0 0 0 0
0 0 0 0 0 0 0 0 0 2 3 7 14 20 19 16 12 8 4 3 2 1 1 0 0 0 0 0 0 0 0 0 0 0 0 0 0 0 0 0 0 0 0 0
0 0 0 0 0 0 0 0 0 0 1 4 9 11 11 7 6 4 3 2 1 0 0 0 0 0 0 0 0 0 0 0 0 0 0 0 0 0 0 0 0 0 0 0
0 0 0 0 0 0 0 0 0 1 1 2 4 6 6 5 4 3 2 1 0 0 0 0 0 0 0 0 0 0 0 0 0 0 0 0 0 0 0 0 0 0 0 0
0 0 0 0 0 0 0 0 0 1 2 1 2 3 4 4 2 1 1 0 0 0 0 0 0 0 0 0 0 0 0 0 0 0 0 0 0 0 0 0 0 0 0 0
0 0 0 0 0 0 0 0 0 1 1 1 1 2 3 2 1 0 0 0 0 0 0 0 0 0 0 0 0 0 0 0 0 0 0 0 0 0 0 0 0 0 0 0
0 0 0 0 0 0 0 0 0 0 1 0 1 2 2 1 0 0 0 0 0 0 0 0 0 0 0 0 0 0 0 0 0 0 0 0 0 0 0 0 0 0 0 0
Wind_Speed
3 1 7 10 9 11 10 10 9 7 2 4 2 3 5 6 5 6 6 7 8 7 7 8 9 9 8 8 8 9 10 8 8 6 6 6 4 3 3 3 4 4 4 4
4 9 14 12 13 13 12 9 6 3 4 4 1 1 2 3 4 6 7 7 8 7 7 8 9 8 8 9 9 9 8 8 8 6 5 4 5 3 3 3 3 4 4 4
9 12 9 11 13 11 10 6 4 2 3 6 3 3 2 2 1 2 5 7 7 9 10 10 10 9 9 9 10 10 8 8 7 7 5 5 4 3 2 2 2 2 4 4
9 13 12 13 14 10 8 6 2 3 4 3 4 2 5 2 4 2 3 4 7 7 9 10 10 10 11 10 9 9 8 7 7 7 8 9 6 5 4 4 3 3 4 4
8 7 7 11 12 8 8 4 2 4 5 3 4 2 7 4 4 4 4 5 7 8 10 11 11 11 10 9 9 8 8 7 7 7 8 8 5 4 3 3 4 3 2 4
13 11 8 10 12 9 5 3 6 6 6 3 2 1 6 4 5 4 4 6 8 9 10 9 9 8 8 8 8 8 8 7 7 7 7 7 7 6 6 5 5 3 2 2
10 13 10 9 9 10 3 4 5 6 4 2 2 1 8 8 6 5 6 6 8 9 10 10 10 9 9 9 9 9 9 8 7 7 7 7 7 8 8 7 6 5 3 3
6 10 8 6 8 7 5 6 6 4 4 2 2 5 8 6 5 4 4 6 8 9 10 11 11 10 10 11 10 10 10 8 8 7 6 6 6 5 5 6 5 5 4 5
8 9 7 7 5 5 3 3 7 7 3 3 3 6 8 3 2 2 3 6 8 10 11 11 10 10 10 11 10 10 10 8 8 7 6 5 6 5 5 5 5 4 4 5
9 7 8 6 2 2 4 4 5 5 4 2 2 4 6 5 5 4 4 5 6 8 10 10 10 10 10 10 9 9 9 9 8 8 7 6 6 6 5 5 5 5 5 5
7 7 7 3 3 6 1 2 4 4 5 6 4 7 8 9 8 7 6 7 8 10 11 11 10 10 9 9 9 9 9 8 8 8 7 6 6 6 5 5 6 5 5 5
4 6 5 7 5 4 5 6 7 5 3 4 4 7 6 8 7 7 7 6 7 9 9 9 10 10 9 10 9 10 9 9 9 8 7 7 6 6 6 6 6 5 5 6
1 4 1 6 6 4 1 3 5 7 5 4 5 6 2 3 4 5 6 6 5 6 7 8 8 9 10 10 10 10 9 9 8 7 7 6 6 6 6 6 5 5 6 6
2 3 6 8 8 5 3 3 5 6 5 4 6 6 4 5 5 4 3 4 4 5 6 7 8 8 8 8 8 9 9 8 8 7 7 7 7 6 6 5 5 5 6 6
4 1 2 4 4 3 4 6 7 6 8 8 7 8 10 10 9 6 5 5 5 4 5 6 7 7 7 7 6 7 6 6 7 7 7 7 6 5 4 4 5 5 5 6
3 1 2 4 3 3 4 6 6 5 5 6 6 4 4 5 4 4 4 6 6 5 6 6 6 7 7 7 7 6 6 5 5 5 4 3 2 2 2 2 2 2 3 3
0 1 1 4 5 3 3 4 4 3 4 8 8 8 7 7 7 6 6 7 7 7 7 7 6 6 6 6 7 7 7 7 7 6 4 4 3 3 2 2 2 1 0 0
3 2 2 2 1 5 6 3 3 1 1 3 6 9 10 9 8 6 6 8 9 9 9 8 7 8 7 7 8 8 8 8 9 8 6 6 5 5 5 5 4 2 2 2
3 5 3 2 3 5 4 3 3 1 2 3 10 12 12 13 12 9 7 9 10 10 10 9 9 10 10 9 9 11 10 10 10 8 7 6 6 6 6 5 4 3 4 4
3 3 4 3 4 6 4 3 3 3 1 2 9 13 12 9 6 4 6 10 12 11 10 10 10 11 11 9 9 13 11 10 9 7 7 6 6 6 5 4 3 3 4 4
3 2 2 4 4 5 2 5 2 3 5 4 6 10 8 5 7 10 10 11 11 11 11 11 12 11 9 8 10 13 10 8 6 6 7 6 6 5 5 4 4 5 5 6
2 2 2 3 3 6 2 1 2 3 1 4 5 8 11 14 16 13 12 11 11 12 11 11 12 11 8 8 11 12 9 6 6 6 6 5 4 4 5 5 4 4 5 5
3 3 2 3 4 3 2 2 2 2 4 4 8 11 14 16 15 14 12 11 11 11 10 9 11 11 8 7 9 10 6 5 6 6 6 5 4 4 3 4 4 3 3 3
3 2 1 1 3 3 3 2 2 1 3 6 11 14 15 16 15 14 12 10 10 10 9 9 10 10 7 6 7 7 5 5 6 6 5 4 4 4 4 3 2 2 2 2
3 2 2 2 1 2 4 2 2 6 9 11 12 15 16 17 16 14 12 10 9 8 7 8 9 9 7 6 6 5 5 6 7 6 5 4 4 4 3 3 2 2 1 2
2 3 4 4 3 3 1 2 5 10 12 13 15 14 12 13 14 13 11 9 9 8 8 8 8 8 6 6 5 4 5 6 6 5 4 3 3 3 3 3 4 7 6 7
Wind_Direction
272 235 249 248 230 232 259 269 277 283 279 111 161 188 185 180 160 166 170 174 175 178 173 164 166 167 157 156 158 155 152 151 144 138 133 131 133 140 131 134 134 122 109 99
316 267 255 264 268 267 268 272 276 315 33 94 146 190 183 174 177 182 181 181 176 163 163 166 164 166 165 163 160 152 154 154 152 146 141 138 138 145 141 133 128 129 118 115
232 254 275 282 282 285 279 254 239 207 66 41 47 2 344 335 311 202 192 177 166 170 166 167 167 172 171 170 167 164 161 157 154 145 126 117 101 93 92 118 136 144 131 121
246 258 268 275 279 279 281 271 204 128 87 6 27 324 301 319 320 273 214 180 170 172 168 168 169 173 176 175 168 161 161 159 157 148 141 146 147 153 175 171 166 159 147 138
247 260 275 277 275 286 270 275 103 99 105 69 22 63 300 343 308 282 237 197 178 174 172 171 171 173 174 170 165 164 161 165 164 156 152 151 148 156 153 148 151 156 157 157
248 261 259 264 281 285 276 39 55 57 71 49 315 84 285 266 253 275 242 203 182 174 169 164 162 163 166 164 161 164 163 168 171 162 155 154 155 155 149 156 166 174 174 169
270 273 265 261 279 299 336 69 22 360 17 262 244 211 253 254 250 250 239 206 181 172 164 163 166 168 168 168 168 169 169 174 176 166 162 162 162 162 164 168 176 176 181 188
231 272 256 238 216 229 249 153 167 206 221 215 266 242 257 260 248 238 213 180 166 168 170 173 175 174 171 171 173 173 176 179 176 171 172 170 166 163 170 174 175 185 192 198
203 244 253 238 235 196 218 221 176 145 129 125 248 279 296 274 272 236 163 159 171 175 177 176 175 174 174 174 178 177 176 179 179 177 174 176 175 171 175 178 178 188 199 200
183 236 271 260 283 308 173 165 94 110 140 187 240 251 248 242 218 210 189 183 187 179 179 177 177 177 176 176 175 173 176 182 182 180 182 186 186 183 181 178 187 194 201 198
180 197 272 303 221 229 214 104 119 129 150 151 205 252 228 209 201 200 207 203 193 186 182 182 180 178 175 172 173 176 179 180 184 187 188 186 187 188 185 189 197 195 195 190
206 164 238 258 260 212 175 178 151 149 216 162 173 253 253 196 196 198 202 200 191 185 180 180 177 173 174 176 178 181 182 184 188 189 188 192 191 190 194 203 205 197 194 192
333 119 93 335 330 352 110 168 152 136 135 161 167 247 269 171 186 209 199 184 177 172 170 171 171 175 179 180 181 183 185 187 185 181 184 192 194 193 201 209 209 204 198 195
88 128 173 207 226 221 228 219 170 138 152 188 199 198 207 187 191 203 179 162 160 161 163 166 170 175 176 176 178 181 185 184 182 180 182 188 195 198 203 206 207 207 201 197
55 94 257 243 242 221 228 231 205 184 181 179 200 187 204 195 190 187 170 152 140 133 141 158 163 165 165 166 171 174 175 176 179 176 187 199 199 200 200 203 211 211 207 208
44 43 345 320 321 300 277 257 228 212 193 179 157 201 205 170 142 135 142 140 141 134 134 134 137 143 149 157 161 157 148 143 137 143 166 166 150 161 186 202 213 221 227 225
49 78 10 288 306 342 271 252 236 225 196 163 178 193 158 137 137 149 143 128 124 123 120 121 128 134 133 132 134 129 126 119 115 115 108 99 104 107 100 96 85 89 69 89
167 147 167 230 9 242 247 294 323 98 68 140 135 141 138 127 109 94 101 111 106 103 100 97 98 97 96 98 98 97 93 94 95 93 88 86 92 92 82 74 71 63 67 70
167 157 160 173 211 266 298 351 3 96 51 93 124 122 118 112 85 58 62 96 102 98 94 89 89 91 90 91 96 96 89 88 88 88 84 85 90 89 84 77 66 61 69 66
46 108 148 171 189 222 236 306 329 82 113 196 138 140 143 125 113 127 102 97 97 93 91 90 85 83 81 78 87 90 87 86 86 89 89 87 89 91 90 86 75 65 76 76
353 12 166 187 211 245 266 300 346 153 208 192 153 143 139 125 127 128 117 102 100 97 93 92 89 83 80 82 88 87 84 83 88 89 87 85 86 91 90 83 73 73 75 71
237 217 199 165 187 239 303 319 178 198 147 138 123 120 111 109 111 114 111 108 105 100 95 95 94 87 78 79 87 85 80 78 77 76 75 74 74 80 84 77 68 73 83 82
225 213 202 197 211 244 260 220 210 132 125 133 123 121 122 121 122 119 116 113 108 105 100 98 99 93 80 75 85 90 84 76 72 67 62 59 55 54 67 80 79 76 84 93
258 198 198 254 262 290 343 19 26 98 130 126 129 130 127 123 122 119 117 115 111 107 104 103 100 96 87 78 80 89 87 77 71 61 49 44 45 39 42 53 75 91 98 100
247 212 198 224 242 19 18 21 112 129 118 115 120 126 129 128 126 125 123 121 118 112 107 103 103 102 99 91 83 81 82 79 70 58 45 40 42 42 37 34 39 64 83 135
232 198 191 212 192 136 136 163 121 111 115 120 123 116 116 120 121 120 117 116 116 113 108 105 105 107 105 97 85 73 75 79 72 54 39 35 36 34 38 41 35 43 56 71